TimeCDT,TemperatureF,Dew PointF,Humidity,Sea Level PressureIn,VisibilityMPH,Wind Direction,Wind SpeedMPH,Gust SpeedMPH,PrecipitationIn,Events,Conditions,WindDirDegrees,DateUTC
12:15 AM,64.4,64.4,100,29.81,1.5,Calm,Calm,-,N/A,,Clear,0,2013-06-26 05:15:00
12:35 AM,64.4,64.4,100,29.81,7.0,Calm,Calm,-,N/A,,Clear,0,2013-06-26 05:35:00
12:55 AM,66.2,66.2,100,29.81,5.0,Calm,Calm,-,N/A,,Clear,0,2013-06-26 05:55:00
1:15 AM,68.0,66.2,94,29.82,1.0,Calm,Calm,-,N/A,,Clear,0,2013-06-26 06:15:00
1:35 AM,66.2,64.4,94,29.81,1.8,Calm,Calm,-,N/A,,Clear,0,2013-06-26 06:35:00
1:55 AM,62.6,62.6,100,29.81,5.0,Calm,Calm,-,N/A,,Clear,0,2013-06-26 06:55:00
2:15 AM,66.2,64.4,94,29.80,10.0,Calm,Calm,-,N/A,,Clear,0,2013-06-26 07:15:00
2:35 AM,64.4,62.6,94,29.80,7.0,Calm,Calm,-,N/A,,Clear,0,2013-06-26 07:35:00
2:55 AM,66.2,64.4,94,29.80,2.0,Calm,Calm,-,N/A,,Clear,0,2013-06-26 07:55:00
3:15 AM,62.6,62.6,100,29.79,0.2,Calm,Calm,-,N/A,,Unknown,0,2013-06-26 08:15:00
3:35 AM,66.2,64.4,94,29.79,2.5,Calm,Calm,-,N/A,,Clear,0,2013-06-26 08:35:00
3:55 AM,64.4,64.4,100,29.79,0.8,SSW,3.5,-,N/A,,Unknown,200,2013-06-26 08:55:00
4:15 AM,64.4,64.4,100,29.80,1.0,Calm,Calm,-,N/A,,Clear,0,2013-06-26 09:15:00
4:35 AM,64.4,64.4,100,29.79,4.0,Calm,Calm,-,N/A,,Clear,0,2013-06-26 09:35:00
4:55 AM,66.2,64.4,94,29.79,3.0,Calm,Calm,-,N/A,,Clear,0,2013-06-26 09:55:00
5:15 AM,64.4,62.6,94,29.80,2.5,SSW,3.5,-,N/A,,Mostly Cloudy,200,2013-06-26 10:15:00
5:35 AM,68.0,64.4,88,29.79,3.0,SW,3.5,-,N/A,,Scattered Clouds,230,2013-06-26 10:35:00
5:55 AM,69.8,66.2,88,29.79,6.0,Calm,Calm,-,N/A,,Partly Cloudy,0,2013-06-26 10:55:00
6:15 AM,66.2,66.2,100,29.79,6.0,Calm,Calm,-,N/A,,Partly Cloudy,0,2013-06-26 11:15:00
6:35 AM,69.8,66.2,88,29.79,7.0,Calm,Calm,-,N/A,,Clear,0,2013-06-26 11:35:00
6:55 AM,69.8,68.0,94,29.79,9.0,Calm,Calm,-,N/A,,Clear,0,2013-06-26 11:55:00
7:15 AM,71.6,68.0,88,29.79,10.0,South,4.6,-,N/A,,Clear,170,2013-06-26 12:15:00
7:35 AM,71.6,66.2,83,29.80,10.0,South,4.6,-,N/A,,Scattered Clouds,180,2013-06-26 12:35:00
7:55 AM,71.6,66.2,83,29.80,10.0,South,4.6,-,N/A,,Overcast,180,2013-06-26 12:55:00
8:15 AM,73.4,66.2,78,29.80,10.0,SSE,5.8,-,N/A,,Scattered Clouds,160,2013-06-26 13:15:00
8:35 AM,73.4,66.2,78,29.80,10.0,SE,5.8,-,N/A,,Partly Cloudy,140,2013-06-26 13:35:00
8:55 AM,73.4,66.2,78,29.79,9.0,East,6.9,-,N/A,,Clear,100,2013-06-26 13:55:00
9:15 AM,73.4,66.2,78,29.78,9.0,SSE,5.8,-,N/A,,Clear,150,2013-06-26 14:15:00
9:35 AM,75.2,66.2,73,29.78,10.0,South,10.4,-,N/A,,Scattered Clouds,170,2013-06-26 14:35:00
9:55 AM,75.2,66.2,73,29.76,10.0,South,6.9,-,N/A,,Scattered Clouds,180,2013-06-26 14:55:00
10:15 AM,75.2,68.0,78,29.76,9.0,SSE,6.9,-,N/A,,Clear,150,2013-06-26 15:15:00
10:35 AM,75.2,68.0,78,29.76,6.0,SE,8.1,-,N/A,,Clear,130,2013-06-26 15:35:00
10:55 AM,77.0,68.0,74,29.76,9.0,SSE,8.1,-,N/A,,Clear,150,2013-06-26 15:55:00
11:15 AM,77.0,68.0,74,29.77,10.0,SE,6.9,-,N/A,,Clear,130,2013-06-26 16:15:00
11:35 AM,75.2,68.0,78,29.78,10.0,ESE,8.1,-,N/A,,Clear,120,2013-06-26 16:35:00
11:55 AM,75.2,68.0,78,29.77,9.0,SE,10.4,-,N/A,,Partly Cloudy,130,2013-06-26 16:55:00
12:15 PM,75.2,68.0,78,29.76,10.0,SE,13.8,-,N/A,,Clear,130,2013-06-26 17:15:00
12:35 PM,73.4,66.2,78,29.77,9.0,ESE,9.2,-,N/A,,Clear,120,2013-06-26 17:35:00
12:55 PM,73.4,66.2,78,29.77,10.0,East,9.2,-,N/A,,Mostly Cloudy,100,2013-06-26 17:55:00
1:15 PM,73.4,66.2,78,29.77,8.0,SE,9.2,-,N/A,,Mostly Cloudy,130,2013-06-26 18:15:00
1:35 PM,73.4,66.2,78,29.77,9.0,SSE,6.9,-,N/A,,Mostly Cloudy,160,2013-06-26 18:35:00
1:55 PM,73.4,68.0,83,29.76,7.0,SSE,8.1,-,N/A,,Mostly Cloudy,150,2013-06-26 18:55:00
2:15 PM,75.2,69.8,83,29.75,8.0,SE,11.5,-,N/A,,Clear,140,2013-06-26 19:15:00
2:35 PM,75.2,69.8,83,29.75,8.0,ESE,12.7,-,N/A,,Clear,120,2013-06-26 19:35:00
2:55 PM,75.2,68.0,78,29.76,9.0,SE,11.5,-,N/A,,Clear,130,2013-06-26 19:55:00
3:15 PM,73.4,66.2,78,29.76,10.0,SSE,11.5,-,N/A,,Partly Cloudy,160,2013-06-26 20:15:00
3:35 PM,75.2,68.0,78,29.75,10.0,SSE,11.5,-,N/A,,Scattered Clouds,150,2013-06-26 20:35:00
3:55 PM,73.4,66.2,78,29.75,10.0,SSE,10.4,-,N/A,,Clear,150,2013-06-26 20:55:00
4:15 PM,73.4,66.2,78,29.76,10.0,South,10.4,-,N/A,,Clear,180,2013-06-26 21:15:00
4:35 PM,73.4,66.2,78,29.75,10.0,South,10.4,-,N/A,,Clear,190,2013-06-26 21:35:00
4:55 PM,75.2,68.0,78,29.73,10.0,South,8.1,-,N/A,,Clear,170,2013-06-26 21:55:00
5:15 PM,77.0,69.8,78,29.74,10.0,South,8.1,-,N/A,,Clear,180,2013-06-26 22:15:00
5:35 PM,78.8,71.6,78,29.73,10.0,South,6.9,-,N/A,,Clear,180,2013-06-26 22:35:00
5:55 PM,78.8,71.6,78,29.73,10.0,South,9.2,-,N/A,,Clear,170,2013-06-26 22:55:00
6:15 PM,78.8,69.8,74,29.72,10.0,South,5.8,-,N/A,,Clear,170,2013-06-26 23:15:00
6:35 PM,78.8,69.8,74,29.70,10.0,SSE,6.9,-,N/A,,Clear,160,2013-06-26 23:35:00
6:55 PM,77.0,69.8,78,29.72,10.0,South,5.8,-,N/A,,Clear,180,2013-06-26 23:55:00
7:15 PM,77.0,69.8,78,29.72,10.0,Calm,Calm,-,N/A,,Clear,0,2013-06-27 00:15:00
7:35 PM,75.2,69.8,83,29.73,9.0,Calm,Calm,-,N/A,,Clear,0,2013-06-27 00:35:00
7:55 PM,75.2,69.8,83,29.75,10.0,NNE,4.6,-,N/A,,Clear,20,2013-06-27 00:55:00
8:15 PM,73.4,69.8,88,29.76,10.0,Calm,Calm,-,N/A,,Clear,0,2013-06-27 01:15:00
8:35 PM,73.4,69.8,88,29.76,10.0,NE,5.8,-,N/A,,Scattered Clouds,40,2013-06-27 01:35:00
8:55 PM,73.4,62.6,69,29.79,10.0,North,18.4,24.2,N/A,,Overcast,10,2013-06-27 01:55:00
9:15 PM,66.2,62.6,88,29.77,10.0,North,-9999.0,-,0.05,Thunderstorm,Overcast,0,2013-06-27 02:15:00
9:35 PM,66.2,62.6,88,29.77,10.0,North,-9999.0,-,0.05,Thunderstorm,Scattered Clouds,0,2013-06-27 02:35:00
9:55 PM,66.2,62.6,88,29.76,10.0,North,-9999.0,-,0.06,,Clear,0,2013-06-27 02:55:00
10:15 PM,66.2,62.6,88,29.78,10.0,North,-9999.0,-,N/A,,Clear,0,2013-06-27 03:15:00
10:35 PM,64.4,62.6,94,29.79,10.0,North,-9999.0,-,N/A,,Partly Cloudy,0,2013-06-27 03:35:00
10:55 PM,64.4,62.6,94,29.78,10.0,North,-9999.0,-,N/A,,Mostly Cloudy,0,2013-06-27 03:55:00
11:15 PM,64.4,62.6,94,29.77,10.0,North,-9999.0,-,N/A,,Partly Cloudy,0,2013-06-27 04:15:00
11:35 PM,64.4,62.6,94,29.77,10.0,North,-9999.0,-,N/A,,Clear,0,2013-06-27 04:35:00
11:55 PM,66.2,62.6,88,29.76,5.0,North,-9999.0,-,N/A,,Clear,0,2013-06-27 04:55:00